Location: Newark
(47.3150°N, 5.1150°E)
Time: 00:24:53
(UTC+00:00)

O/OREOS (USA 219) - Visible Passes

Search period start: 15 December 2019 00:00
Search period end: 25 December 2019 00:00
Orbit: 621 x 646 km, 72.0° (Epoch: 22 May)

Date Brightness Start Highest point End Pass type
(mag) Time Alt. Az. Time Alt. Az. Time Alt. Az.
15 Dec ? 04:13:06 11° NNE 04:14:48 13° NE 04:17:03 10° ENE visible
15 Dec ? 05:50:34 11° NNW 05:55:03 76° ENE 05:59:37 10° SSE visible
16 Dec ? 04:35:08 16° NNE 04:37:21 23° NE 04:40:59 10° ESE visible
16 Dec ? 06:12:37 10° NW 06:17:04 52° WSW 06:21:29 10° S visible
17 Dec ? 04:57:16 23° N 04:59:42 41° ENE 05:04:02 10° SE visible
17 Dec ? 06:35:10 10° NW 06:38:53 25° WSW 06:42:36 10° SSW visible
18 Dec ? 03:41:57 14° NE 03:41:57 14° NE 03:44:12 10° ENE visible
18 Dec ? 05:19:26 28° NNW 05:21:52 84° ENE 05:26:26 10° SSE visible
19 Dec ? 04:04:13 25° NE 04:04:13 25° NE 04:07:58 10° ESE visible
19 Dec ? 05:41:42 26° NW 05:43:51 46° WSW 05:48:12 10° S visible
20 Dec ? 04:26:33 45° ENE 04:26:33 45° ENE 04:30:55 10° SE visible
20 Dec ? 06:04:02 19° WNW 06:05:40 23° WSW 06:09:11 10° SSW visible
21 Dec ? 04:48:58 79° SSE 04:48:58 79° SSE 04:53:14 10° SSE visible
21 Dec ? 06:26:28 10° W 06:27:18 11° W 06:28:17 10° WSW visible
22 Dec ? 03:33:58 15° ESE 03:33:58 15° ESE 03:34:57 10° ESE visible
22 Dec ? 05:11:28 38° SW 05:11:28 38° SW 05:14:55 10° S visible
22 Dec ? 19:21:09 10° SSW 19:21:18 11° SW 19:21:18 11° SW visible
23 Dec ? 03:56:33 18° SE 03:56:33 18° SE 03:57:48 10° SE visible
23 Dec ? 05:34:03 17° SW 05:34:03 17° SW 05:35:46 10° SSW visible
23 Dec ? 18:04:34 10° SSE 18:06:27 21° SSE 18:06:27 21° SSE visible
23 Dec ? 19:43:44 10° WSW 19:43:58 11° WSW 19:43:58 11° WSW visible
24 Dec ? 04:19:12 15° SSE 04:19:12 15° SSE 04:20:02 10° SSE visible
24 Dec ? 18:25:56 10° SSW 18:29:04 42° S 18:29:04 42° S visible
